Aérodrome :
LOGIN :

S'inscrire | Disclaimer

   EN    FR    IT 

 










Légende :    VFR   VFR Marginal   IFR   IFR Intensif   IFR Très Intensif
Visi : 
Plafond : 
>= 8 km
>= 3000ft
5 à 8 km
1000 à 3000 ft
1500m à 5 km
500 à 1000 ft
800 à 1500m
200 à 500 ft
< 800m
< 200 ft
Symboles :   Orages  Brouillard  Fortes neiges  Fortes précipitations  Vent > 20 kt
SIGMETs :   Divers  Orages  Givrage  Turbulence  Onde Orograph.  Cendres Volcan.






- Altitude de l'aérodrome : 1682 ft
- Code IATA : VIT


LEVT - Vitoria Gasteiz

DERNIER METAR :
  • 061230Z 18003KT 9999 FEW040 34/13 Q1016

METARs EXPIRÉS :
  • 061200Z 19003KT 9999 FEW040 33/14 Q1016
  • 061130Z 30003KT 9999 FEW040 31/14 Q1016
  • 061100Z 15001KT CAVOK 30/14 Q1016
  • 061030Z 13003KT CAVOK 28/13 Q1017
  • 061000Z 17002KT CAVOK 27/14 Q1017

TAF TAF LEVT
Valide du 06 à 12h jusqu'au 07 à 12h UTC


061100Z 0612/0712 14009KT CAVOK TX37/0615Z TN22/0706Z



MET'MAP, la Météo Aéronautique d'un coup d'oeil ! - Copyright ORBIFLY Décembre 2007 - Disclaimer

ORBIFLY MET'MAP TEAM :

Programmation & Développement : Alexandra Zaïnal
Sur une idée originale de : Baudouin d'Aumeries
Assistance à la programmation : Marc-Olivier Méhu
Soutien technique & logistique : Manuel Goepfert

Contact : metmap@orbifly.com




SOURCES & CREDITS :

   NOAA